Tracking 29892 objects as of 21-Nov-2024
HD Live streaming from Space Station
objects crossing your sky now

TIANHUI 5C

Track TIANHUI 5C now!
10-day predictions


NORAD ID: 60211
Int'l Code: 2024-127A
Perigee: 610.3 km
Apogee: 612.1 km
Inclination: 97.8 °
Period: 96.8 minutes
Semi major axis: 6982 km
RCS: Unknown
Launch date: July 4, 2024
Source: People's Republic of China (PRC)
Launch site: Taiyaun Space Center, China (TSC)
Your satellite tracking list
Your tracking list is empty




NASA's NSSDC Master Catalog

Two Line Element Set (TLE):
1 60211U 24126A   24326.15148119  .00001050  00000-0  12026-3 0  9992
2 60211  97.8300 330.8381 0001261  96.7585 263.3775 14.88042475 20698
Source of the keplerian elements: AFSPC